User: anonymous   Login
Location: Camp Creek
(33.9000°N, 111.8167°W)
Time: 21:59:34
(UTC-07:00)
Language:

DELTA 2 R/B (1) - Orbit

View from above orbital plane
View from above orbital plane
View from above satellite
View from above satellite

Ground track
Ground track

The orbit data is extracted from the following two-line orbital elements,

1 27665U 03005C   17023.69618424  .00000009  00000-0  37144-4 0  9999
2 27665  39.5757 125.9780 0008425  42.2470 108.8624 14.28432420730261
Epoch (UTC): 23 January 2017 16:42:30
Eccentricity: 0.0008425
inclination: 39.5757°
perigee height: 791 km
apogee height: 803 km
right ascension of ascending node: 125.9780°
argument of perigee: 42.2470°
revolutions per day: 14.28432420
mean anomaly at epoch: 108.8624°
orbit number at epoch: 73026

The dashed part of the orbit path shows where the satellite is in the earth's shadow,  

DLR